This demonstration page uses our WeatherBlox Daily Observations layout. Learn more.

Left ArrowRight Arrow

34.74481, -87.66753

Hourly Observations for April 30, 2021

Temp ( °F °C ) Dew Point ( °F °C ) Humidity (%) Winds ( mph kmh ) Pressure ( in mb ) Visibility ( mi km ) Precip ( " mm )
12:53 am 00:53 Cloudy 68 20 62 16.7 81 81 NNW 3 6 30.06 1018 10 16 0.00 0.00
1:53 am 01:53 Mostly Cloudy 67 19.4 60 15.6 79 79 N 6 9 30.06 1018 10 16 0.00 0.00
2:53 am 02:53 Clear 66 18.9 57 13.9 73 73 N 5 7 30.06 1018 10 16 0.00 0.00
3:53 am 03:53 Clear 64 17.8 56 13.3 75 75 Calm 30.06 1018 10 16 0.00 0.00
4:53 am 04:53 Clear 61 16.1 55 12.8 81 81 Calm 30.08 1019 10 16 0.00 0.00
5:53 am 05:53 Clear 59 15 54 12.2 83 83 Calm 30.09 1019 10 16 0.00 0.00
6:53 am 06:53 Sunny 60 15.6 55 12.8 84 84 Calm 30.10 1019 10 16 0.00 0.00
7:53 am 07:53 Sunny 65 18.3 55 12.8 70 70 VRB 3 6 30.12 1020 10 16 0.00 0.00
8:53 am 08:53 Sunny 67 19.4 55 12.8 66 66 NNE 6 9 30.14 1021 10 16 0.00 0.00
9:53 am 09:53 Sunny 70 21.1 54 12.2 57 57 N 6 9 30.15 1021 10 16 0.00 0.00
10:53 am 10:53 Sunny 73 22.8 53 11.7 50 50 NNW 5 7 30.16 1021 10 16 0.00 0.00
11:53 am 11:53 Sunny 76 24.4 52 11.1 43 43 NNW 9 15 30.14 1021 10 16 0.00 0.00
12:53 pm 12:53 Sunny 76 24.4 48 8.9 37 37 N 10 17 30.12 1020 10 16 0.00 0.00
1:53 pm 13:53 Sunny 78 25.6 49 9.4 36 36 VRB 7 11 30.11 1020 10 16 0.00 0.00
2:53 pm 14:53 Sunny 79 26.1 47 8.3 32 32 NW 9 15 30.10 1019 10 16 0.00 0.00
3:53 pm 15:53 Sunny 78 25.6 46 7.8 32 32 VRB 7 11 30.09 1019 10 16 0.00 0.00
4:53 pm 16:53 Sunny 79 26.1 45 7.2 30 30 NNW 7 11 30.09 1019 10 16 0.00 0.00
5:53 pm 17:53 Sunny 77 25 45 7.2 32 32 NW 6 9 30.09 1019 10 16 0.00 0.00
6:53 pm 18:53 Sunny 74 23.3 46 7.8 37 37 NW 5 7 30.09 1019 10 16 0.00 0.00
7:53 pm 19:53 Clear 70 21.1 47 8.3 44 44 NNW 5 7 30.10 1019 10 16 0.00 0.00
8:53 pm 20:53 Clear 69 20.6 47 8.3 45 45 N 5 7 30.10 1019 10 16 0.00 0.00
9:53 pm 21:53 Clear 68 20 47 8.3 47 47 N 3 6 30.11 1020 10 16 0.00 0.00
10:53 pm 22:53 Clear 64 17.8 48 8.9 56 56 N 3 6 30.11 1020 10 16 0.00 0.00
11:53 pm 23:53 Clear 59 15 49 9.4 69 69 Calm 30.11 1020 10 16 0.00 0.00

Powered by AerisWeather